カタログに戻る

DELTA 1 DEB

運用中SSO
NORAD 10870·DEBRIS·🇺🇸 United States

打ち上げ Jul 29, 1976 から Vandenberg Space Force Base

Loading…

次のパス (今後24時間)

TLE

最新Source: Space-Track

元期: Sep 13, 2026, 10:05 UTC

1 10870U 76077CY  26256.42055461  .00000084  00000-0  85472-3 0  9992
2 10870 101.7394 236.9667 0020104  24.3717 130.0732 12.48972516274872

AllMySatでDELTA 1 DEBをリアルタイム追跡

Download on the App Store